{"data":{"norad_id":47731,"epoch":"2026-07-23T12:54:16.130016Z","epoch_age_seconds":5116271,"freshness":"OLD","line1":"1 47731U 21017K   26204.53768669  .08035852  12429-4  53142-3 0  9998","line2":"2 47731  53.1321 253.0634 0004959 310.3134  49.7480 16.40765384299202","mean_motion":16.40765384,"eccentricity":0.0004959,"inclination_deg":53.1321,"raan_deg":253.0634,"arg_perigee_deg":310.3134,"mean_anomaly_deg":49.748,"bstar":0.00053142,"rev_number":29920,"period_min":87.763918841915,"perigee_km":160.52314034186,"apogee_km":167.01140099751,"semimajor_km":6541.9042706697,"source":"CELESTRAK","updated_at":"2026-07-24T09:01:04.162758Z"}}